When you browse on this site, cookies collect data to enhance your experience and personalize the content and advertising you see.
Visit our Privacy Policy to learn more. By continuing to use the site, you agree to this use of cookies and data.
  • In United Kingdom
  • List of Countries
  • For 7 days
  • Water Temperature
  • Satellite Maps
  • Weather Map
  • Weather Widgets
  • user-avatar
    Login

    Hourly Weather Gweru

    Today, 21 May, Tuesday

    Time Temperature Precipitation Wind Pressure Humidity
    00:00 +13°C° 0 mm 2 mps 645 mmHg 52%
    01:00 +12°C° 0 mm 2 mps 644 mmHg 54%
    02:00 +12°C° 0 mm 2 mps 644 mmHg 56%
    03:00 +12°C° 0 mm 1 mps 644 mmHg 57%
    04:00 +11°C° 0 mm 1 mps 644 mmHg 58%
    05:00 +11°C° 0 mm 1 mps 644 mmHg 59%
    06:00 +13°C° 0 mm 1 mps 645 mmHg 54%
    07:00 +14°C° 0 mm 1 mps 646 mmHg 48%
    08:00 +18°C° 0 mm 1 mps 647 mmHg 40%
    09:00 +21°C° 0 mm 1 mps 647 mmHg 34%
    10:00 +24°C° 0 mm 1 mps 648 mmHg 28%
    11:00 +27°C° 0 mm 1 mps 649 mmHg 22%
    12:00 +27°C° 0 mm 1 mps 648 mmHg 20%
    13:00 +28°C° 0 mm 1 mps 648 mmHg 17%
    14:00 +28°C° 0 mm 2 mps 647 mmHg 15%
    15:00 +27°C° 0 mm 2 mps 647 mmHg 17%
    16:00 +25°C° 0 mm 2 mps 646 mmHg 18%
    17:00 +24°C° 0 mm 3 mps 646 mmHg 20%
    18:00 +21°C° 0 mm 3 mps 645 mmHg 23%
    19:00 +18°C° 0 mm 3 mps 645 mmHg 26%
    20:00 +16°C° 0 mm 3 mps 645 mmHg 30%
    21:00 +16°C° 0 mm 3 mps 645 mmHg 33%
    22:00 +14°C° 0 mm 3 mps 646 mmHg 36%
    23:00 +14°C° 0 mm 3 mps 646 mmHg 39%

    Tomorrow, 22 May, Wednesday

    Time Temperature Precipitation Wind Pressure Humidity
    00:00 +13°C° 0 mm 3 mps 646 mmHg 41%
    01:00 +12°C° 0 mm 3 mps 645 mmHg 43%
    02:00 +13°C° 0 mm 2 mps 645 mmHg 45%
    03:00 +12°C° 0 mm 2 mps 645 mmHg 47%
    04:00 +12°C° 0 mm 2 mps 645 mmHg 49%
    05:00 +12°C° 0 mm 2 mps 645 mmHg 51%
    06:00 +12°C° 0 mm 3 mps 646 mmHg 47%
    07:00 +14°C° 0 mm 4 mps 647 mmHg 43%
    08:00 +15°C° 0 mm 4 mps 648 mmHg 40%
    09:00 +19°C° 0 mm 4 mps 648 mmHg 35%
    10:00 +21°C° 0 mm 4 mps 649 mmHg 30%
    11:00 +23°C° 0 mm 4 mps 649 mmHg 25%
    12:00 +25°C° 0 mm 4 mps 649 mmHg 23%
    13:00 +26°C° 0 mm 4 mps 648 mmHg 21%
    14:00 +26°C° 0 mm 4 mps 648 mmHg 20%
    15:00 +25°C° 0 mm 4 mps 647 mmHg 23%
    16:00 +23°C° 0 mm 4 mps 647 mmHg 27%
    17:00 +21°C° 0 mm 4 mps 646 mmHg 31%
    18:00 +19°C° 0 mm 4 mps 646 mmHg 41%
    19:00 +17°C° 0 mm 4 mps 646 mmHg 52%
    20:00 +14°C° 0 mm 4 mps 646 mmHg 62%
    21:00 +14°C° 0 mm 4 mps 646 mmHg 67%
    22:00 +13°C° 0 mm 3 mps 646 mmHg 72%
    23:00 +12°C° 0 mm 3 mps 646 mmHg 77%

    Day after tomorrow, 23 May, Thursday

    Time Temperature Precipitation Wind Pressure Humidity
    00:00 +12°C° 0 mm 3 mps 646 mmHg 81%
    01:00 +11°C° 0 mm 3 mps 646 mmHg 86%
    02:00 +12°C° 0 mm 2 mps 645 mmHg 91%
    03:00 +10°C° 0 mm 2 mps 645 mmHg 92%
    04:00 +10°C° 0 mm 2 mps 645 mmHg 94%
    05:00 +10°C° 0 mm 2 mps 645 mmHg 96%
    06:00 +12°C° 0 mm 2 mps 646 mmHg 88%
    07:00 +13°C° 0 mm 2 mps 647 mmHg 81%
    08:00 +15°C° 0 mm 2 mps 648 mmHg 74%
    09:00 +18°C° 0 mm 3 mps 648 mmHg 60%
    10:00 +20°C° 0 mm 3 mps 649 mmHg 46%
    11:00 +24°C° 0 mm 3 mps 649 mmHg 32%
    12:00 +25°C° 0 mm 4 mps 649 mmHg 30%
    13:00 +25°C° 0 mm 4 mps 648 mmHg 28%
    14:00 +26°C° 0 mm 4 mps 647 mmHg 26%
    15:00 +25°C° 0 mm 4 mps 647 mmHg 29%
    16:00 +23°C° 0 mm 4 mps 646 mmHg 32%
    17:00 +22°C° 0 mm 3 mps 646 mmHg 34%
    18:00 +20°C° 0 mm 3 mps 646 mmHg 41%
    19:00 +18°C° 0 mm 3 mps 646 mmHg 48%
    20:00 +16°C° 0 mm 3 mps 646 mmHg 55%
    21:00 +14°C° 0 mm 3 mps 646 mmHg 60%
    22:00 +14°C° 0 mm 3 mps 646 mmHg 65%
    23:00 +13°C° 0 mm 3 mps 647 mmHg 70%

    24 May, Friday

    Time Temperature Precipitation Wind Pressure Humidity
    00:00 +13°C° 0 mm 3 mps 646 mmHg 74%
    01:00 +12°C° 0 mm 3 mps 646 mmHg 78%
    02:00 +13°C° 0 mm 2 mps 646 mmHg 82%
    03:00 +12°C° 0 mm 2 mps 646 mmHg 85%
    04:00 +12°C° 0 mm 2 mps 646 mmHg 87%
    05:00 +10°C° 0 mm 2 mps 646 mmHg 90%
    06:00 +13°C° 0 mm 2 mps 647 mmHg 84%
    07:00 +13°C° 0 mm 3 mps 647 mmHg 77%
    08:00 +14°C° 0 mm 4 mps 648 mmHg 71%
    09:00 +17°C° 0 mm 4 mps 649 mmHg 60%
    10:00 +20°C° 0 mm 4 mps 649 mmHg 50%
    11:00 +22°C° 0 mm 4 mps 650 mmHg 39%
    12:00 +23°C° 0 mm 4 mps 649 mmHg 36%
    13:00 +23°C° 0 mm 4 mps 649 mmHg 34%
    14:00 +25°C° 0 mm 4 mps 648 mmHg 31%
    15:00 +23°C° 0 mm 4 mps 648 mmHg 34%
    16:00 +22°C° 0 mm 4 mps 647 mmHg 37%
    17:00 +21°C° 0 mm 4 mps 647 mmHg 40%
    18:00 +19°C° 0 mm 5 mps 647 mmHg 50%
    19:00 +17°C° 0 mm 5 mps 647 mmHg 60%
    20:00 +15°C° 0 mm 5 mps 648 mmHg 70%
    21:00 +14°C° 0 mm 5 mps 648 mmHg 75%
    22:00 +13°C° 0 mm 5 mps 648 mmHg 80%
    23:00 +13°C° 0 mm 5 mps 648 mmHg 84%

    25 May, Saturday

    Time Temperature Precipitation Wind Pressure Humidity
    00:00 +12°C° 0 mm 4 mps 647 mmHg 87%
    01:00 +12°C° 0 mm 4 mps 647 mmHg 90%
    02:00 +11°C° 0 mm 4 mps 647 mmHg 93%
    03:00 +11°C° 0 mm 4 mps 647 mmHg 93%
    04:00 +11°C° 0 mm 4 mps 647 mmHg 94%
    05:00 +11°C° 0 mm 4 mps 647 mmHg 94%
    06:00 +12°C° 0 mm 4 mps 647 mmHg 89%
    07:00 +12°C° 0 mm 4 mps 648 mmHg 85%
    08:00 +13°C° 0 mm 4 mps 648 mmHg 80%
    09:00 +15°C° 0 mm 4 mps 649 mmHg 71%
    10:00 +18°C° 0 mm 4 mps 649 mmHg 62%
    11:00 +20°C° 0 mm 4 mps 649 mmHg 53%
    12:00 +20°C° 0 mm 4 mps 649 mmHg 51%
    13:00 +21°C° 0 mm 4 mps 648 mmHg 48%
    14:00 +22°C° 0 mm 4 mps 648 mmHg 46%
    15:00 +20°C° 0 mm 4 mps 647 mmHg 52%
    16:00 +19°C° 0 mm 4 mps 647 mmHg 58%
    17:00 +17°C° 0 mm 4 mps 646 mmHg 65%
    18:00 +15°C° 0 mm 4 mps 647 mmHg 70%
    19:00 +13°C° 0 mm 3 mps 647 mmHg 75%
    20:00 +12°C° 0 mm 3 mps 647 mmHg 81%
    21:00 +12°C° 0 mm 3 mps 647 mmHg 79%
    22:00 +12°C° 0 mm 3 mps 647 mmHg 78%
    23:00 +11°C° 0 mm 3 mps 647 mmHg 77%

    26 May, Sunday

    Time Temperature Precipitation Wind Pressure Humidity
    00:00 +11°C° 0 mm 3 mps 646 mmHg 76%
    01:00 +10°C° 0 mm 3 mps 646 mmHg 75%
    02:00 +10°C° 0 mm 3 mps 646 mmHg 74%
    03:00 +9°C° 0 mm 2 mps 646 mmHg 73%
    04:00 +9°C° 0 mm 2 mps 646 mmHg 72%
    05:00 +8°C° 0 mm 2 mps 646 mmHg 70%
    06:00 +10°C° 0 mm 2 mps 646 mmHg 66%
    07:00 +11°C° 0 mm 3 mps 647 mmHg 61%
    08:00 +12°C° 0 mm 3 mps 648 mmHg 56%
    09:00 +16°C° 0 mm 3 mps 648 mmHg 47%
    10:00 +18°C° 0 mm 3 mps 649 mmHg 37%
    11:00 +21°C° 0 mm 3 mps 649 mmHg 28%
    12:00 +22°C° 0 mm 3 mps 649 mmHg 25%
    13:00 +22°C° 0 mm 3 mps 648 mmHg 23%
    14:00 +24°C° 0 mm 3 mps 648 mmHg 20%
    15:00 +22°C° 0 mm 3 mps 647 mmHg 24%
    16:00 +21°C° 0 mm 3 mps 647 mmHg 27%
    17:00 +19°C° 0 mm 3 mps 646 mmHg 30%
    18:00 +18°C° 0 mm 3 mps 646 mmHg 37%
    19:00 +15°C° 0 mm 4 mps 646 mmHg 43%
    20:00 +13°C° 0 mm 4 mps 646 mmHg 49%
    21:00 +12°C° 0 mm 3 mps 646 mmHg 54%
    22:00 +12°C° 0 mm 3 mps 646 mmHg 58%
    23:00 +11°C° 0 mm 3 mps 646 mmHg 62%
    Show more